Tracking 27188 objects as of 1-Apr-2023
HD Live streaming from Space Station
objects crossing your sky now

STARLINK-3652

Track STARLINK-3652 now!
10-day predictions
STARLINK-3652 is classified as:


NORAD ID: 51991
Int'l Code: 2022-025AM
Perigee: 545.9 km
Apogee: 548.0 km
Inclination: 53.2 °
Period: 95.4 minutes
Semi major axis: 6917 km
RCS: Unknown
Launch date: March 9, 2022
Source: United States (US)
Launch site: AIR FORCE EASTERN TEST RANGE (AFETR)
Your satellite tracking list
Your tracking list is empty




NASA's NSSDC Master Catalog

Two Line Element Set (TLE):
1 51991U 22025AM  23090.88583980 -.00014812  00000-0 -91469-3 0  9999
2 51991  53.2145 179.6147 0001508  54.0654 306.0477 15.08831443 60044
Source of the keplerian elements: AFSPC